Location: Ladrillo (historical)
(32.8195°N, 117.2231°W)
Time: 00:20:21
(UTC+00:00)

Courier 1B - Pass Details

Date: 14 March 2021
Orbit: 963 x 1209 km, 28.3° (Epoch: 15 April)

Event Time Altitude Azimuth Distance (km) Brightness Sun altitude
Rises 09:47:29 0° 224° (SW) 4,008 - -50.2°
Reaches altitude 10° 09:50:46 10° 214° (SW) 3,011 - -49.7°
Maximum altitude 09:56:54 29° 158° (SSE) 1,894 - -48.7°
Drops below altitude 10° 10:02:45 10° 101° (E) 2,861 - -47.8°
Exits shadow 10:02:59 - 100° (E) 2,928 10.3 -47.8°
Sets 10:05:46 0° 90° (E) 3,776 11.1 -47.3°
